Weather reports worldwide

Advertisment
Sines, Portugal (8541): temperature & dewpoint: 16.07.2019 01:00:00 - 22.07.2019 01:00:00 (WEST)Sines, Portugal (8541): wind speed & gusts: 16.07.2019 01:00:00 - 22.07.2019 01:00:00 (WEST)Sines, Portugal (8541): wind direction: 16.07.2019 01:00:00 - 22.07.2019 01:00:00 (WEST)Sines, Portugal (8541): reduced air pressure: 16.07.2019 01:00:00 - 22.07.2019 01:00:00 (WEST)Sines, Portugal (8541): visibility: 16.07.2019 01:00:00 - 22.07.2019 01:00:00 (WEST)Sines, Portugal (8541): precipitation: 16.07.2019 01:00:00 - 22.07.2019 01:00:00 (WEST)
Date & Time tt [°C] td [°C] ff [km/h] ff [kn] fx [km/h] fx [kn] dd ppp [hPa] vv [km] rr [mm]
22.07.2019 01:00:00 - - - - - - - - - -
22.07.2019 00:00:00 17,6 15,9 14 8 - - NNW 1018,3 - 0,0
21.07.2019 23:00:00 18,1 15,9 14 8 - - N 1018,4 - 0,0
21.07.2019 22:00:00 18,0 16,0 14 8 - - NNW 1018,3 - -
21.07.2019 21:00:00 18,8 15,7 14 8 29 16 NNW 1017,6 - 0,0
21.07.2019 20:00:00 21,2 16,1 18 10 32 18 NNW 1017,1 - 0,0
21.07.2019 19:00:00 22,4 16,4 14 8 - - NNW 1017,1 - 0,0
21.07.2019 18:00:00 22,2 15,9 25 14 - - NNW 1017,2 - 0,0
21.07.2019 17:00:00 22,8 16,4 25 14 - - NW 1017,7 - 0,0
21.07.2019 16:00:00 23,7 16,5 25 14 - - NW 1018,0 - 0,0
21.07.2019 15:00:00 23,7 16,1 29 16 - - NW 1018,2 - 0,0
21.07.2019 14:00:00 23,5 15,4 22 12 - - NW 1018,3 - 0,0
21.07.2019 13:00:00 23,7 15,7 18 10 - - NNW 1018,6 - 0,0
21.07.2019 12:00:00 23,2 15,1 18 10 32 18 NNW 1019,0 - 0,0
21.07.2019 11:00:00 22,0 15,4 18 10 29 16 NNW 1018,9 - 0,0
21.07.2019 10:00:00 21,4 15,1 18 10 - - N 1018,7 - 0,0
21.07.2019 09:00:00 19,7 14,8 14 8 22 12 N 1019,1 - 0,0
21.07.2019 08:00:00 17,6 15,2 11 6 - - N 1019,0 - 0,0
21.07.2019 07:00:00 15,4 14,2 14 8 - - N 1018,6 - 0,0
21.07.2019 06:00:00 15,5 14,1 14 8 - - N 1018,5 - 0,0
21.07.2019 05:00:00 15,8 14,3 14 8 22 12 N 1018,5 - 0,0
21.07.2019 04:00:00 15,8 13,9 11 6 - - N 1018,6 - 0,0
21.07.2019 03:00:00 16,2 14,1 14 8 36 19 N 1018,8 - 0,0
21.07.2019 02:00:00 17,3 14,2 29 16 43 23 N 1018,5 - 0,0
21.07.2019 01:00:00 - - - - - - - - - -
21.07.2019 00:00:00 18,9 14,2 29 16 - - N 1018,7 - 0,0
20.07.2019 23:00:00 18,5 16,2 18 10 - - N 1018,6 - 0,0
20.07.2019 22:00:00 18,0 16,6 22 12 - - NNW 1018,1 - -
20.07.2019 21:00:00 18,5 16,8 25 14 47 25 NNW 1017,1 - 0,0
20.07.2019 20:00:00 19,8 16,9 29 16 47 25 NNW 1016,5 - 0,0
20.07.2019 19:00:00 20,8 17,0 32 18 - - NNW 1015,9 - 0,0
20.07.2019 18:00:00 - - - - - - - - - -
20.07.2019 17:00:00 - - - - - - - - - -
20.07.2019 16:00:00 - - - - - - - - - -
20.07.2019 15:00:00 - - - - - - - - - -
20.07.2019 14:00:00 23,7 17,1 32 18 - - NW 1016,3 - 0,0
20.07.2019 13:00:00 23,3 16,6 25 14 - - NNW 1016,4 - 0,0
20.07.2019 12:00:00 22,0 16,5 29 16 43 23 NNW 1016,4 - 0,0
20.07.2019 11:00:00 21,0 16,3 32 18 - - NNW 1016,2 - 0,0
20.07.2019 10:00:00 21,1 16,2 22 12 - - NNW 1016,4 - 0,0
20.07.2019 09:00:00 19,4 16,4 22 12 32 18 NNW 1016,4 - 0,0
20.07.2019 08:00:00 17,9 16,6 11 6 18 10 NNW 1016,2 - 0,0
20.07.2019 07:00:00 16,3 16,0 7 4 - - NNW 1015,9 - 0,0
20.07.2019 06:00:00 16,1 15,5 7 4 - - NNW 1015,5 - 0,0
20.07.2019 05:00:00 16,3 15,7 11 6 - - NNW 1015,2 - 0,0
20.07.2019 04:00:00 16,2 15,7 14 8 - - NNW 1015,0 - 0,0
20.07.2019 03:00:00 16,1 14,8 7 4 22 12 NNW 1015,0 - 0,0
20.07.2019 02:00:00 17,8 15,2 18 10 32 18 N 1014,9 - 0,0
20.07.2019 01:00:00 18,0 14,6 25 14 - - N 1014,6 - 0,0
20.07.2019 00:00:00 17,3 15,2 18 10 - - N 1014,6 - 0,0
19.07.2019 23:00:00 17,5 15,2 18 10 36 19 NNW 1014,3 - 0,0
19.07.2019 22:00:00 17,9 15,5 25 14 - - NNW 1013,5 - -
19.07.2019 21:00:00 18,3 15,5 25 14 43 23 NNW 1012,9 - 0,0
19.07.2019 20:00:00 19,3 15,8 22 12 40 21 NNW 1012,5 - 0,0
19.07.2019 19:00:00 20,9 16,3 29 16 - - NNW 1012,4 - 0,0
19.07.2019 18:00:00 21,8 16,4 25 14 40 21 NNW 1012,7 - 0,0
19.07.2019 17:00:00 22,3 17,0 25 14 - - NNW 1013,1 - 0,0
19.07.2019 16:00:00 23,0 17,1 29 16 - - NW 1013,2 - 0,0
19.07.2019 15:00:00 23,7 17,1 25 14 - - NW 1013,6 20 0,0
19.07.2019 14:00:00 22,7 17,1 29 16 - - NW 1014,0 20 0,0
19.07.2019 13:00:00 22,7 16,6 22 12 - - NNW 1014,5 30 0,0
19.07.2019 12:00:00 22,4 16,7 18 10 29 16 NW 1014,6 25 0,0
19.07.2019 11:00:00 23,2 16,4 18 10 32 18 NNW 1014,5 30 0,0
19.07.2019 10:00:00 21,7 16,6 14 8 - - N 1014,4 30 0,0
19.07.2019 09:00:00 19,9 16,5 14 8 22 12 NNW 1014,6 - 0,0
19.07.2019 08:00:00 17,7 16,1 11 6 - - N 1014,6 - 0,0
19.07.2019 07:00:00 16,1 15,4 7 4 - - N 1014,4 - 0,0
19.07.2019 06:00:00 16,1 15,2 7 4 - - N 1014,2 - 0,0
19.07.2019 05:00:00 16,1 15,3 4 2 - - NNW 1014,3 - 0,0
19.07.2019 04:00:00 17,0 15,5 11 6 - - N 1014,2 - 0,0
19.07.2019 03:00:00 17,8 15,7 14 8 32 18 N 1014,5 - 0,0
19.07.2019 02:00:00 18,3 15,7 25 14 - - NNE 1014,7 - 0,0
19.07.2019 01:00:00 18,4 15,7 25 14 - - N 1015,0 - 0,0
19.07.2019 00:00:00 19,0 15,7 29 16 - - N 1015,0 - 0,0
18.07.2019 23:00:00 19,7 15,8 29 16 - - N 1014,9 - 0,0
18.07.2019 22:00:00 18,8 15,9 22 12 - - N 1014,6 - -
18.07.2019 21:00:00 19,2 15,8 18 10 32 18 NNW 1014,0 - 0,0
18.07.2019 20:00:00 20,2 15,9 18 10 32 18 NNW 1013,9 - 0,0
18.07.2019 19:00:00 22,1 15,6 18 10 - - NNW 1013,8 - 0,0
18.07.2019 18:00:00 22,8 15,1 22 12 32 18 NW 1014,0 - 0,0
18.07.2019 17:00:00 23,7 16,3 22 12 32 18 NW 1014,2 - 0,0
18.07.2019 16:00:00 23,8 16,0 25 14 - - NW 1014,6 - 0,0
18.07.2019 15:00:00 23,6 15,7 25 14 - - NW 1015,2 - 0,0
18.07.2019 14:00:00 24,2 14,9 22 12 - - NW 1015,7 - 0,0
18.07.2019 13:00:00 23,2 14,6 18 10 - - NW 1016,1 20 0,0
18.07.2019 12:00:00 21,9 14,2 18 10 29 16 NW 1016,5 20 0,0
18.07.2019 11:00:00 20,9 15,0 18 10 - - NW 1016,6 20 0,0
18.07.2019 10:00:00 20,1 14,7 11 6 - - NNW 1016,7 18 0,0
18.07.2019 09:00:00 18,7 15,1 7 4 - - NW 1016,8 - 0,0
18.07.2019 08:00:00 16,5 15,5 7 4 - - NNW 1016,9 - 0,0
18.07.2019 07:00:00 15,5 14,6 7 4 - - NNW 1016,8 - 0,0
18.07.2019 06:00:00 15,7 14,9 11 6 18 10 NNW 1016,6 - 0,0
18.07.2019 05:00:00 15,7 14,7 11 6 22 12 NNW 1016,5 - 0,0
18.07.2019 04:00:00 15,8 14,8 11 6 - - NNW 1016,9 - 0,0
18.07.2019 03:00:00 15,8 15,3 14 8 22 12 NNW 1017,0 - 0,0
18.07.2019 02:00:00 16,0 14,8 11 6 22 12 NNW 1017,6 - 0,0
18.07.2019 01:00:00 16,8 15,1 11 6 - - NNW 1018,0 - 0,0
18.07.2019 00:00:00 17,4 14,9 22 12 32 18 N 1017,9 - 0,0
17.07.2019 23:00:00 17,3 15,5 18 10 32 18 NNW 1017,7 - 0,0
17.07.2019 22:00:00 17,5 15,6 25 14 - - NNW 1017,5 - -
17.07.2019 21:00:00 18,0 15,8 25 14 43 23 NNW 1016,9 - 0,0
17.07.2019 20:00:00 18,7 15,8 29 16 50 27 NW 1016,7 - 0,0
17.07.2019 19:00:00 19,6 15,7 32 18 - - NW 1016,3 - 0,0
17.07.2019 18:00:00 20,4 15,9 32 18 50 27 NW 1016,5 - 0,0
17.07.2019 17:00:00 20,6 15,8 32 18 - - NW 1016,8 - 0,0
17.07.2019 16:00:00 22,1 16,1 32 18 - - NW 1017,0 18 0,0
17.07.2019 15:00:00 22,1 15,6 29 16 47 25 NW 1017,4 15 0,0
17.07.2019 14:00:00 21,9 16,0 25 14 - - NW 1017,8 15 0,0
17.07.2019 13:00:00 21,7 15,8 25 14 - - NW 1018,0 15 0,0
17.07.2019 12:00:00 20,9 15,1 22 12 - - NW 1017,9 15 0,0
17.07.2019 11:00:00 19,8 15,3 22 12 - - NW 1017,6 15 0,0
17.07.2019 10:00:00 18,8 15,8 22 12 - - NNW 1017,3 14 0,0
17.07.2019 09:00:00 18,2 15,8 14 8 29 16 NNW 1016,9 - 0,0
17.07.2019 08:00:00 17,8 15,8 18 10 29 16 NW 1016,4 - 0,0
17.07.2019 07:00:00 17,6 16,0 18 10 - - NNW 1016,0 - 0,0
17.07.2019 06:00:00 17,7 16,3 22 12 40 21 NNW 1015,6 - 0,0
17.07.2019 05:00:00 17,7 15,9 22 12 36 19 NNW 1015,4 - 0,0
17.07.2019 04:00:00 17,7 16,3 18 10 - - NW 1015,6 - 0,0
17.07.2019 03:00:00 17,7 16,4 18 10 29 16 NW 1015,9 - 0,0
17.07.2019 02:00:00 17,8 15,8 22 12 36 19 NNW 1016,1 - 0,0
17.07.2019 01:00:00 17,5 15,8 25 14 - - NNW 1016,3 - 0,0
17.07.2019 00:00:00 17,5 15,7 25 14 - - NNW 1016,4 - 0,0
16.07.2019 23:00:00 17,6 15,7 29 16 43 23 NNW 1016,3 - 0,0
16.07.2019 22:00:00 17,5 16,1 29 16 - - NW 1015,9 - -
16.07.2019 21:00:00 17,8 16,4 25 14 40 21 NW 1015,4 - 0,0
16.07.2019 20:00:00 18,9 16,6 25 14 40 21 NW 1015,0 - 0,0
16.07.2019 19:00:00 20,0 16,9 29 16 - - NW 1015,0 - 0,0
16.07.2019 18:00:00 21,1 16,6 29 16 43 23 NW 1014,9 - 0,0
16.07.2019 17:00:00 21,4 17,1 32 18 - - NW 1015,2 - 0,0
16.07.2019 16:00:00 21,9 16,5 29 16 - - NW 1015,4 - 0,0
16.07.2019 15:00:00 22,1 16,8 25 14 - - NW 1015,5 13 0,0
16.07.2019 14:00:00 23,3 16,9 25 14 - - NW 1015,5 15 0,0
16.07.2019 13:00:00 22,2 16,6 25 14 - - NW 1015,8 20 0,0
16.07.2019 12:00:00 21,7 16,1 25 14 - - NW 1016,0 18 0,0
16.07.2019 11:00:00 21,4 15,1 18 10 29 16 NNW 1015,8 20 0,0
16.07.2019 10:00:00 19,7 15,9 11 6 - - NW 1016,0 15 0,0
16.07.2019 09:00:00 18,8 14,6 7 4 - - N 1015,9 - 0,0
16.07.2019 08:00:00 17,9 14,9 7 4 - - NNW 1015,8 - 0,0
16.07.2019 07:00:00 17,5 16,2 4 2 - - NNW 1015,3 - 0,0
16.07.2019 06:00:00 17,5 16,3 7 4 - - NNW 1015,0 - 0,0
16.07.2019 05:00:00 17,0 16,2 7 4 - - N 1015,0 - 0,0
16.07.2019 04:00:00 16,6 15,5 11 6 - - N 1015,0 - 0,0
16.07.2019 03:00:00 17,0 15,6 14 8 25 14 N 1015,2 - 0,0
16.07.2019 02:00:00 17,1 16,0 14 8 22 12 N 1015,6 - 0,0
16.07.2019 01:00:00 17,4 16,2 18 10 - - N 1015,8 - 0,0

tt = temperature
td = dewpoint
ff = wind speed
fx = gusts
dd = wind direction
ppp = reduced air pressure
vv = visibility
rr = precipitation

Next stations